Torna al catalogo

ONEWEB-0426

AttivoComunicazioniPO
NORAD 50498·PAYLOAD·🇬🇧 United Kingdom

Lanciato Dec 27, 2021 da Baikonur Cosmodrome

Loading…

Prossimi Passaggi (prossime 24 ore)

TLE

AggiornatoSource: CelesTrak SupGP

Epoca: Sep 14, 2026, 13:20 UTC

1 50498C 21132AF  26257.55571016  .00003607  00000+0  91589-2 0  2573
2 50498  87.9176 317.6914 0002467 112.6612 332.0522 13.18686669    17

Traccia ONEWEB-0426 in tempo reale con AllMySat

Download on the App Store